Location: Newark
(49.3000°N, 9.4667°E)
Time: 10:58:47
(UTC+00:00)

S-56A Canister/Altair - Pass Details

Date: 23 May 2019
Orbit: 633 x 2499 km, 38.9° (Epoch: 18 June)

Event Time Altitude Azimuth Distance (km) Brightness Sun altitude
Exits shadow 02:21:06 11° 235° (SW) 2,938 9.9 -9.3°
Maximum altitude 02:27:53 42° 167° (SSE) 1,962 9.3 -8.6°
Drops below altitude 10° 02:37:58 10° 103° (ESE) 4,331 11.8 -7.4°
Sets 02:42:15 0° 98° (E) 5,601 12.6 -6.9°
